Regional Weather Roundup
Issued by NWS

Home | Current Version | Previous Version | Graphics & Text | Print | Product List | Glossary On
Versions: 1 2 3 4 5 6 7 8 9 10 11 12 13 14 15 16 17 18 19 20 21 22 23 24 25 26 27 28 29 30 31 32 33 34 35 36 37 38 39 40 41 42 43 44 45 46 47 48 49 50
981
ASUS45 KCYS 291210
RWRWY

WYOMING REGIONAL WEATHER ROUNDUP
NATIONAL WEATHER SERVICE CHEYENNE WY
600 AM MDT MON AUG 29 2016

NOTE:  "FAIR" INDICATES FEW OR NO CLOUDS BELOW 12,000 FEET
WITH NO SIGNIFICANT WEATHER AND/OR OBSTRUCTIONS TO VISIBILITY.

WYZ001-291300-
YELLOWSTONE NATIONAL PARK

CITY           SKY/WX    TMP DP  RH WIND       PRES   REMARKS
LK YELLOWSTONE   N/A     35  32  88 CALM      30.50S
6HR MIN TEMP:  34; 6HR MAX TEMP:  45;

W YELLOWSTONE  NOT AVBL

$$
WYZ002>013-054>058-071-098>099-291300-
NORTHERN WYOMING

CITY           SKY/WX    TMP DP  RH WIND       PRES   REMARKS
JACKSON        FAIR      43  32  65 N6        30.41R
CODY           FAIR      54  37  54 CALM      30.33R
GREYBULL       FAIR      62  43  49 W12       30.24R
6HR MIN TEMP:  62; 6HR MAX TEMP:  73;

WORLAND        FAIR      55  33  43 S9        30.26R
6HR MIN TEMP:  53; 6HR MAX TEMP:  64;

SHERIDAN       FAIR      54  43  66 CALM      30.26R
6HR MIN TEMP:  54; 6HR MAX TEMP:  65;

BUFFALO        FAIR      61  35  37 N6        30.31R
6HR MIN TEMP:  60; 6HR MAX TEMP:  70;

GILLETTE       FAIR      56  44  64 NW8       30.25R
6HR MIN TEMP:  48; 6HR MAX TEMP:  58;

HULETT         FAIR      61  46  59 NE3       30.27R
NEWCASTLE      FAIR      57  37  47 N9        30.20R

$$
WYZ014>020-022>026-101>103-291300-
CENTRAL WYOMING

CITY           SKY/WX    TMP DP  RH WIND       PRES   REMARKS
BIG PINEY      FAIR      36  26  67 CALM      30.40S
6HR MIN TEMP:  36; 6HR MAX TEMP:  53;

PINEDALE       FAIR      39  30  70 W5        30.42R
DUBOIS         FAIR      45  28  53 NW9       30.44R
LANDER         FAIR      62  31  31 SW10      30.31R
6HR MIN TEMP:  57; 6HR MAX TEMP:  71;

RIVERTON       FAIR      56  35  45 NW12      30.32R
6HR MIN TEMP:  55; 6HR MAX TEMP:  67;

CASPER         FAIR      50  38  63 SW6       30.30R
6HR MIN TEMP:  47; 6HR MAX TEMP:  56;

DOUGLAS        FAIR      49  41  74 NW7       30.26R
6HR MIN TEMP:  49; 6HR MAX TEMP:  58;


$$
WYZ021-027>030-104>119-291300-
SOUTHERN WYOMING

CITY           SKY/WX    TMP DP  RH WIND       PRES   REMARKS
EVANSTON       FAIR      56  29  35 SE7       30.41R
6HR MIN TEMP:  53; 6HR MAX TEMP:  64;

FORT BRIDGER   FAIR      57  28  33 W9        30.41F
ROCK SPRINGS   FAIR      52  26  36 SW7       30.37R
6HR MIN TEMP:  51; 6HR MAX TEMP:  63;

DIXON          FAIR      46  33  59 CALM      30.39R
RAWLINS        FAIR      44  31  60 N6        30.38R
6HR MIN TEMP:  42; 6HR MAX TEMP:  57;

SARATOGA       FAIR      43  32  65 E6        30.40R
LARAMIE        FAIR      45  35  68 S5        30.39R
6HR MIN TEMP:  43; 6HR MAX TEMP:  56;

CHEYENNE       FAIR      55  42  61 W8        30.31R
6HR MIN TEMP:  53; 6HR MAX TEMP:  63;

TORRINGTON     FAIR      55  46  71 NW3       30.20R
6HR MIN TEMP:  53; 6HR MAX TEMP:  63;

PINE BLUFFS    FAIR      50  45  81 SW3       30.26S

$$




USA.gov is the U.S. government's official web portal to all federal, state and local government web resources and services.